Time,TemperatureF,DewpointF,PressureIn,WindDirection,WindDirectionDegrees,WindSpeedMPH,WindSpeedGustMPH,Humidity,HourlyPrecipIn,Conditions,Clouds,dailyrainin,SoftwareType,DateUTC
2013-06-28 00:03:00,80.2,74.0,29.92,West,269,1.0,-999.0,81,-99.99,,,0.00,weatherlink.com 1.10,2013-06-28 04:03:00,
2013-06-28 00:18:00,79.9,74.0,29.91,WSW,250,3.0,-999.0,81,-99.99,,,0.00,weatherlink.com 1.10,2013-06-28 04:18:00,
2013-06-28 00:33:00,79.8,74.0,29.92,West,269,4.0,-999.0,81,-99.99,,,0.00,weatherlink.com 1.10,2013-06-28 04:33:00,
2013-06-28 00:48:00,79.7,74.0,29.92,West,279,4.0,-999.0,82,-99.99,,,0.00,weatherlink.com 1.10,2013-06-28 04:48:00,
2013-06-28 01:03:00,79.7,74.0,29.92,WNW,290,5.0,-999.0,82,-99.99,,,0.00,weatherlink.com 1.10,2013-06-28 05:03:00,
2013-06-28 01:18:00,79.7,74.0,29.91,West,263,6.0,-999.0,82,-99.99,,,0.00,weatherlink.com 1.10,2013-06-28 05:18:00,
2013-06-28 01:33:00,79.6,74.0,29.91,West,263,0.0,-999.0,83,-99.99,,,0.00,weatherlink.com 1.10,2013-06-28 05:33:00,
2013-06-28 01:48:00,79.2,74.0,29.91,West,273,3.0,-999.0,83,-99.99,,,0.00,weatherlink.com 1.10,2013-06-28 05:48:00,
2013-06-28 02:03:00,78.9,73.0,29.91,West,267,3.0,-999.0,83,-99.99,,,0.00,weatherlink.com 1.10,2013-06-28 06:03:00,
2013-06-28 02:18:00,78.4,73.0,29.91,WNW,282,6.0,-999.0,84,-99.99,,,0.00,weatherlink.com 1.10,2013-06-28 06:18:00,
2013-06-28 02:33:00,78.2,73.0,29.91,West,273,5.0,-999.0,84,-99.99,,,0.00,weatherlink.com 1.10,2013-06-28 06:33:00,
2013-06-28 02:49:00,77.9,73.0,29.90,West,269,0.0,-999.0,85,-99.99,,,0.00,weatherlink.com 1.10,2013-06-28 06:49:00,
2013-06-28 03:04:00,77.5,73.0,29.90,West,268,5.0,-999.0,86,-99.99,,,0.00,weatherlink.com 1.10,2013-06-28 07:04:00,
2013-06-28 03:19:00,77.3,73.0,29.91,West,265,3.0,-999.0,87,-99.99,,,0.00,weatherlink.com 1.10,2013-06-28 07:19:00,
2013-06-28 03:34:00,77.3,73.0,29.90,West,262,4.0,-999.0,87,-99.99,,,0.00,weatherlink.com 1.10,2013-06-28 07:34:00,
2013-06-28 03:49:00,77.0,73.0,29.90,West,261,2.0,-999.0,87,-99.99,,,0.00,weatherlink.com 1.10,2013-06-28 07:49:00,
2013-06-28 04:04:00,76.9,73.0,29.89,West,276,3.0,-999.0,88,-99.99,,,0.00,weatherlink.com 1.10,2013-06-28 08:04:00,
2013-06-28 04:19:00,76.8,73.0,29.89,West,262,4.0,-999.0,88,-99.99,,,0.00,weatherlink.com 1.10,2013-06-28 08:19:00,
2013-06-28 04:34:00,76.7,73.0,29.89,West,269,3.0,-999.0,88,-99.99,,,0.00,weatherlink.com 1.10,2013-06-28 08:34:00,
2013-06-28 04:49:00,76.7,73.0,29.88,West,279,1.0,-999.0,88,-99.99,,,0.00,weatherlink.com 1.10,2013-06-28 08:49:00,
2013-06-28 05:04:00,76.8,73.0,29.88,WNW,295,5.0,-999.0,88,-99.99,,,0.00,weatherlink.com 1.10,2013-06-28 09:04:00,
2013-06-28 05:19:00,76.8,73.0,29.89,WNW,294,1.0,-999.0,88,-99.99,,,0.00,weatherlink.com 1.10,2013-06-28 09:19:00,
2013-06-28 05:34:00,76.7,73.0,29.89,West,279,4.0,-999.0,88,-99.99,,,0.00,weatherlink.com 1.10,2013-06-28 09:34:00,
2013-06-28 05:49:00,76.7,73.0,29.89,West,278,0.0,-999.0,88,-99.99,,,0.00,weatherlink.com 1.10,2013-06-28 09:49:00,
2013-06-28 06:04:00,76.4,73.0,29.89,West,278,0.0,-999.0,88,-99.99,,,0.00,weatherlink.com 1.10,2013-06-28 10:04:00,
2013-06-28 06:19:00,76.2,73.0,29.90,WSW,240,1.0,-999.0,88,-99.99,,,0.00,weatherlink.com 1.10,2013-06-28 10:19:00,
2013-06-28 06:34:00,76.1,73.0,29.90,WSW,252,0.0,-999.0,89,-99.99,,,0.00,weatherlink.com 1.10,2013-06-28 10:34:00,
2013-06-28 06:49:00,76.3,73.0,29.89,West,278,3.0,-999.0,89,-99.99,,,0.00,weatherlink.com 1.10,2013-06-28 10:49:00,
2013-06-28 07:04:00,76.6,73.0,29.89,West,267,3.0,-999.0,89,-99.99,,,0.00,weatherlink.com 1.10,2013-06-28 11:04:00,
2013-06-28 07:19:00,76.9,73.0,29.89,West,270,0.0,-999.0,88,-99.99,,,0.00,weatherlink.com 1.10,2013-06-28 11:19:00,
2013-06-28 07:35:00,77.3,74.0,29.90,West,279,5.0,-999.0,88,-99.99,,,0.00,weatherlink.com 1.10,2013-06-28 11:35:00,
2013-06-28 07:51:00,77.3,73.0,29.90,West,264,6.0,-999.0,87,-99.99,,,0.00,weatherlink.com 1.10,2013-06-28 11:51:00,
2013-06-28 08:08:00,77.6,74.0,29.91,West,271,8.0,-999.0,87,-99.99,,,0.00,weatherlink.com 1.10,2013-06-28 12:08:00,
2013-06-28 08:25:00,78.2,74.0,29.90,WSW,258,9.0,-999.0,87,-99.99,,,0.00,weatherlink.com 1.10,2013-06-28 12:25:00,
2013-06-28 08:41:00,78.4,74.0,29.90,West,269,10.0,-999.0,86,-99.99,,,0.00,weatherlink.com 1.10,2013-06-28 12:41:00,
2013-06-28 08:58:00,79.2,75.0,29.90,West,272,11.0,-999.0,86,-99.99,,,0.00,weatherlink.com 1.10,2013-06-28 12:58:00,
2013-06-28 09:14:00,80.0,75.0,29.90,WNW,289,8.0,-999.0,85,-99.99,,,0.00,weatherlink.com 1.10,2013-06-28 13:14:00,
2013-06-28 09:31:00,81.4,75.0,29.89,WSW,258,3.0,-999.0,82,-99.99,,,0.00,weatherlink.com 1.10,2013-06-28 13:31:00,
2013-06-28 09:47:00,82.1,75.0,29.89,West,273,7.0,-999.0,80,-99.99,,,0.00,weatherlink.com 1.10,2013-06-28 13:47:00,
2013-06-28 10:03:00,82.8,75.0,29.88,WNW,289,9.0,-999.0,78,-99.99,,,0.00,weatherlink.com 1.10,2013-06-28 14:03:00,
2013-06-28 10:19:00,83.0,75.0,29.89,NNW,332,5.0,-999.0,76,-99.99,,,0.00,weatherlink.com 1.10,2013-06-28 14:19:00,
2013-06-28 10:36:00,83.0,75.0,29.88,West,279,13.0,-999.0,76,-99.99,,,0.00,weatherlink.com 1.10,2013-06-28 14:36:00,
2013-06-28 10:52:00,84.6,75.0,29.88,West,277,6.0,-999.0,73,-99.99,,,0.00,weatherlink.com 1.10,2013-06-28 14:52:00,
2013-06-28 11:09:00,85.0,75.0,29.88,West,277,7.0,-999.0,71,-99.99,,,0.00,weatherlink.com 1.10,2013-06-28 15:09:00,
2013-06-28 11:26:00,86.1,74.0,29.88,WNW,284,11.0,-999.0,68,-99.99,,,0.00,weatherlink.com 1.10,2013-06-28 15:26:00,
2013-06-28 11:42:00,86.5,74.0,29.88,West,267,11.0,-999.0,67,-99.99,,,0.00,weatherlink.com 1.10,2013-06-28 15:42:00,
2013-06-28 11:58:00,86.9,74.0,29.87,West,274,10.0,-999.0,66,-99.99,,,0.00,weatherlink.com 1.10,2013-06-28 15:58:00,
2013-06-28 12:14:00,87.0,73.0,29.86,West,269,12.0,-999.0,64,-99.99,,,0.00,weatherlink.com 1.10,2013-06-28 16:14:00,
2013-06-28 12:32:00,87.7,75.0,29.86,West,264,9.0,-999.0,65,-99.99,,,0.00,weatherlink.com 1.10,2013-06-28 16:32:00,
2013-06-28 12:48:00,88.1,74.0,29.85,West,270,14.0,-999.0,64,-99.99,,,0.00,weatherlink.com 1.10,2013-06-28 16:48:00,
2013-06-28 13:05:00,87.9,74.0,29.85,WNW,285,13.0,-999.0,63,-99.99,,,0.00,weatherlink.com 1.10,2013-06-28 17:05:00,
2013-06-28 13:21:00,87.0,74.0,29.85,NW,325,9.0,-999.0,65,-99.99,,,0.00,weatherlink.com 1.10,2013-06-28 17:21:00,
2013-06-28 13:37:00,88.8,74.0,29.84,West,265,11.0,-999.0,62,-99.99,,,0.00,weatherlink.com 1.10,2013-06-28 17:37:00,
2013-06-28 13:54:00,89.8,73.0,29.83,West,281,12.0,-999.0,57,-99.99,,,0.00,weatherlink.com 1.10,2013-06-28 17:54:00,
2013-06-28 14:10:00,90.4,73.0,29.82,West,275,10.0,-999.0,57,-99.99,,,0.00,weatherlink.com 1.10,2013-06-28 18:10:00,
2013-06-28 14:27:00,91.1,73.0,29.82,West,275,11.0,-999.0,56,-99.99,,,0.00,weatherlink.com 1.10,2013-06-28 18:27:00,
2013-06-28 14:44:00,84.7,72.0,29.82,NW,319,8.0,-999.0,66,-99.99,,,0.00,weatherlink.com 1.10,2013-06-28 18:44:00,
2013-06-28 15:00:00,82.6,72.0,29.82,WNW,282,7.0,-999.0,70,-99.99,,,0.00,weatherlink.com 1.10,2013-06-28 19:00:00,
2013-06-28 15:16:00,83.9,73.0,29.82,West,281,7.0,-999.0,69,-99.99,,,0.00,weatherlink.com 1.10,2013-06-28 19:16:00,
2013-06-28 15:32:00,86.9,75.0,29.82,NW,317,3.0,-999.0,68,-99.99,,,0.00,weatherlink.com 1.10,2013-06-28 19:32:00,
2013-06-28 15:48:00,89.1,75.0,29.82,WNW,298,10.0,-999.0,63,-99.99,,,0.00,weatherlink.com 1.10,2013-06-28 19:48:00,
2013-06-28 16:05:00,88.1,73.0,29.82,NW,323,6.0,-999.0,62,-99.99,,,0.00,weatherlink.com 1.10,2013-06-28 20:05:00,
2013-06-28 16:21:00,87.8,74.0,29.80,North,360,4.0,-999.0,64,-99.99,,,0.00,weatherlink.com 1.10,2013-06-28 20:21:00,
2013-06-28 16:38:00,83.4,71.0,29.81,West,281,22.0,-999.0,67,-99.99,,,0.00,weatherlink.com 1.10,2013-06-28 20:38:00,
2013-06-28 16:54:00,73.3,68.0,29.83,WNW,290,16.0,-999.0,83,-99.99,,,0.03,weatherlink.com 1.10,2013-06-28 20:54:00,
2013-06-28 17:11:00,72.9,70.0,29.81,North,10,3.0,-999.0,90,-99.99,,,0.06,weatherlink.com 1.10,2013-06-28 21:11:00,
2013-06-28 17:27:00,74.4,71.0,29.81,NW,313,1.0,-999.0,89,-99.99,,,0.07,weatherlink.com 1.10,2013-06-28 21:27:00,
2013-06-28 17:44:00,73.7,70.0,29.82,NNW,338,1.0,-999.0,89,-99.99,,,0.07,weatherlink.com 1.10,2013-06-28 21:44:00,
2013-06-28 18:00:00,73.7,70.0,29.82,NNW,338,0.0,-999.0,89,-99.99,,,0.07,weatherlink.com 1.10,2013-06-28 22:00:00,
2013-06-28 18:16:00,73.5,70.0,29.82,NNW,338,1.0,-999.0,89,-99.99,,,0.07,weatherlink.com 1.10,2013-06-28 22:16:00,
2013-06-28 18:33:00,74.0,71.0,29.82,ESE,108,0.0,-999.0,89,-99.99,,,0.07,weatherlink.com 1.10,2013-06-28 22:33:00,
2013-06-28 18:49:00,74.6,71.0,29.81,ESE,115,1.0,-999.0,89,-99.99,,,0.07,weatherlink.com 1.10,2013-06-28 22:49:00,
2013-06-28 19:05:00,74.4,73.0,29.81,WSW,243,1.0,-999.0,94,-99.99,,,0.07,weatherlink.com 1.10,2013-06-28 23:05:00,
2013-06-28 19:23:00,74.3,72.0,29.80,West,259,1.0,-999.0,93,-99.99,,,0.07,weatherlink.com 1.10,2013-06-28 23:23:00,
2013-06-28 19:39:00,74.1,72.0,29.80,WSW,257,1.0,-999.0,93,-99.99,,,0.08,weatherlink.com 1.10,2013-06-28 23:39:00,
2013-06-28 19:55:00,74.2,72.0,29.80,WSW,257,0.0,-999.0,93,-99.99,,,0.08,weatherlink.com 1.10,2013-06-28 23:55:00,
2013-06-28 20:12:00,74.2,72.0,29.81,SW,215,0.0,-999.0,92,-99.99,,,0.08,weatherlink.com 1.10,2013-06-29 00:12:00,
2013-06-28 20:28:00,74.3,72.0,29.82,SW,215,0.0,-999.0,92,-99.99,,,0.09,weatherlink.com 1.10,2013-06-29 00:28:00,
2013-06-28 20:45:00,74.3,72.0,29.83,WSW,246,1.0,-999.0,92,-99.99,,,0.09,weatherlink.com 1.10,2013-06-29 00:45:00,
2013-06-28 21:02:00,74.6,72.0,29.83,WSW,246,1.0,-999.0,92,-99.99,,,0.09,weatherlink.com 1.10,2013-06-29 01:02:00,
2013-06-28 21:17:00,74.8,72.0,29.83,WSW,246,0.0,-999.0,92,-99.99,,,0.09,weatherlink.com 1.10,2013-06-29 01:17:00,
2013-06-28 21:32:00,74.9,73.0,29.83,WSW,244,1.0,-999.0,93,-99.99,,,0.10,weatherlink.com 1.10,2013-06-29 01:32:00,
2013-06-28 21:47:00,74.9,73.0,29.84,WSW,243,1.0,-999.0,93,-99.99,,,0.10,weatherlink.com 1.10,2013-06-29 01:47:00,
2013-06-28 22:02:00,75.0,73.0,29.84,WSW,243,3.0,-999.0,93,-99.99,,,0.10,weatherlink.com 1.10,2013-06-29 02:02:00,
2013-06-28 22:17:00,75.2,73.0,29.84,West,268,4.0,-999.0,92,-99.99,,,0.11,weatherlink.com 1.10,2013-06-29 02:17:00,
2013-06-28 22:32:00,75.4,73.0,29.84,West,272,4.0,-999.0,91,-99.99,,,0.11,weatherlink.com 1.10,2013-06-29 02:32:00,
2013-06-28 22:47:00,75.8,73.0,29.84,West,268,2.0,-999.0,90,-99.99,,,0.11,weatherlink.com 1.10,2013-06-29 02:47:00,
2013-06-28 23:02:00,75.8,72.0,29.84,SW,219,2.0,-999.0,89,-99.99,,,0.11,weatherlink.com 1.10,2013-06-29 03:02:00,
2013-06-28 23:17:00,75.5,73.0,29.84,SW,235,2.0,-999.0,90,-99.99,,,0.11,weatherlink.com 1.10,2013-06-29 03:17:00,
2013-06-28 23:32:00,75.2,72.0,29.84,SW,218,4.0,-999.0,90,-99.99,,,0.11,weatherlink.com 1.10,2013-06-29 03:32:00,
2013-06-28 23:47:00,75.1,72.0,29.84,WSW,238,3.0,-999.0,91,-99.99,,,0.11,weatherlink.com 1.10,2013-06-29 03:47:00,